�������l�o���
Date,Time,MP-1(��Sv/h),MP-2(��Sv/h),MP-3(��Sv/h),MP-4(��Sv/h),MP-5(��Sv/h),MP-6(��Sv/h),MP-7(��Sv/h),MP-8(��Sv/h),����,����(m/s),���J
2024/02/28,00:00,0.498,0.754,0.476,0.941,0.675,0.307,0.549,0.514,�k��,8.7,��
2024/02/28,00:10,0.497,0.755,0.475,0.939,0.676,0.308,0.550,0.515,�k��,8.4,��
2024/02/28,00:20,0.498,0.753,0.475,0.940,0.676,0.307,0.550,0.514,�k��,8.7,��
2024/02/28,00:30,0.498,0.753,0.477,0.941,0.674,0.306,0.550,0.516,�k��,8.2,��
2024/02/28,00:40,0.500,0.754,0.476,0.941,0.675,0.307,0.548,0.514,�k�k��,7.7,��
2024/02/28,00:50,0.499,0.753,0.476,0.942,0.675,0.307,0.550,0.514,�k�k��,7.1,��
2024/02/28,01:00,0.499,0.753,0.476,0.940,0.676,0.306,0.549,0.515,�k��,10.7,��
2024/02/28,01:10,0.498,0.754,0.477,0.940,0.677,0.307,0.549,0.514,�k��,8.2,��
2024/02/28,01:20,0.498,0.753,0.475,0.942,0.674,0.307,0.551,0.514,�k��,8.0,��
2024/02/28,01:30,0.497,0.756,0.476,0.941,0.677,0.307,0.550,0.516,�k��,9.1,��
2024/02/28,01:40,0.500,0.753,0.474,0.940,0.678,0.307,0.549,0.515,�k��,9.6,��
2024/02/28,01:50,0.498,0.754,0.476,0.942,0.675,0.307,0.549,0.517,�k��,7.7,��
2024/02/28,02:00,0.497,0.753,0.476,0.941,0.675,0.306,0.550,0.515,�k��,9.0,��
2024/02/28,02:10,0.498,0.755,0.476,0.941,0.676,0.306,0.549,0.514,�k��,9.0,��
2024/02/28,02:20,0.498,0.754,0.477,0.942,0.675,0.306,0.551,0.514,�k��,8.5,��
2024/02/28,02:30,0.499,0.755,0.476,0.941,0.676,0.306,0.549,0.515,�k��,9.6,��
2024/02/28,02:40,0.498,0.753,0.475,0.941,0.677,0.306,0.549,0.515,�k��,10.0,��
2024/02/28,02:50,0.499,0.756,0.476,0.940,0.675,0.307,0.549,0.515,�k��,8.6,��
2024/02/28,03:00,0.497,0.754,0.476,0.940,0.676,0.307,0.551,0.516,�k��,8.8,��
2024/02/28,03:10,0.498,0.754,0.477,0.942,0.677,0.307,0.551,0.516,�k��,8.2,��
2024/02/28,03:20,0.497,0.754,0.476,0.941,0.676,0.307,0.550,0.516,�k��,7.9,��
2024/02/28,03:30,0.498,0.755,0.475,0.942,0.678,0.309,0.549,0.516,�k��,7.0,��
2024/02/28,03:40,0.497,0.754,0.477,0.942,0.679,0.307,0.551,0.515,�k��,4.2,��
2024/02/28,03:50,0.498,0.754,0.477,0.941,0.679,0.307,0.551,0.515,�k�k��,4.2,��
2024/02/28,04:00,0.497,0.754,0.476,0.942,0.677,0.308,0.549,0.516,�k�k��,5.2,��
2024/02/28,04:10,0.498,0.753,0.477,0.940,0.675,0.308,0.551,0.517,�k�k��,5.3,��
2024/02/28,04:20,0.498,0.753,0.475,0.942,0.676,0.307,0.550,0.517,�k�k��,5.3,��
2024/02/28,04:30,0.497,0.754,0.476,0.941,0.677,0.307,0.549,0.516,�k�k��,5.7,��
2024/02/28,04:40,0.497,0.753,0.476,0.942,0.677,0.308,0.548,0.516,�k��,8.1,��
2024/02/28,04:50,0.497,0.754,0.476,0.939,0.676,0.308,0.548,0.514,�k��,5.5,��
2024/02/28,05:00,0.499,0.754,0.477,0.942,0.676,0.307,0.551,0.515,�k��,6.1,��
2024/02/28,05:10,0.499,0.753,0.475,0.942,0.677,0.307,0.548,0.514,�k��,5.7,��
2024/02/28,05:20,0.497,0.752,0.476,0.942,0.675,0.307,0.549,0.517,�k��,6.9,��
2024/02/28,05:30,0.498,0.753,0.476,0.941,0.676,0.307,0.549,0.515,�k��,7.6,��
2024/02/28,05:40,0.498,0.752,0.477,0.941,0.676,0.307,0.548,0.516,�k��,7.0,��
2024/02/28,05:50,0.497,0.753,0.477,0.943,0.674,0.306,0.549,0.517,�k��,5.0,��
2024/02/28,06:00,0.498,0.753,0.477,0.942,0.675,0.308,0.550,0.515,�k��,7.0,��
2024/02/28,06:10,0.497,0.755,0.475,0.944,0.675,0.307,0.550,0.516,�k��,7.7,��
2024/02/28,06:20,0.499,0.754,0.477,0.940,0.678,0.307,0.550,0.517,�k��,8.1,��
2024/02/28,06:30,0.498,0.756,0.476,0.941,0.677,0.307,0.549,0.516,�k�k��,7.2,��
2024/02/28,06:40,0.498,0.755,0.476,0.943,0.675,0.304,0.550,0.516,�k��,8.1,��
2024/02/28,06:50,0.498,0.753,0.477,0.942,0.678,0.307,0.550,0.515,�k�k��,6.7,��
2024/02/28,07:00,0.498,0.752,0.476,0.941,0.675,0.308,0.548,0.516,�k�k��,6.8,��
2024/02/28,07:10,0.499,0.753,0.476,0.941,0.676,0.306,0.551,0.515,�k�k��,6.3,��
2024/02/28,07:20,0.496,0.754,0.477,0.943,0.674,0.306,0.549,0.515,�k��,7.5,��
2024/02/28,07:30,0.497,0.753,0.475,0.942,0.676,0.307,0.548,0.516,�k�k��,7.0,��
2024/02/28,07:40,0.497,0.753,0.477,0.941,0.676,0.306,0.551,0.516,�k�k��,7.9,��
2024/02/28,07:50,0.498,0.754,0.476,0.942,0.676,0.307,0.550,0.517,�k��,7.4,��
2024/02/28,08:00,0.499,0.755,0.477,0.942,0.674,0.305,0.551,0.515,�k��,7.3,��
2024/02/28,08:10,0.499,0.756,0.476,0.941,0.676,0.306,0.550,0.517,�k��,6.9,��
2024/02/28,08:20,0.498,0.755,0.477,0.942,0.676,0.306,0.551,0.516,�k��,8.0,��
2024/02/28,08:30,0.499,0.754,0.476,0.941,0.675,0.306,0.552,0.517,�k��,7.1,��
2024/02/28,08:40,0.499,0.755,0.477,0.943,0.675,0.306,0.551,0.515,�k�k��,7.8,��
2024/02/28,08:50,0.499,0.757,0.476,0.943,0.676,0.307,0.550,0.516,�k�k��,6.5,��
2024/02/28,09:00,0.499,0.754,0.477,0.943,0.677,0.307,0.552,0.517,�k��,7.1,��
2024/02/28,09:10,0.498,0.755,0.477,0.942,0.675,0.306,0.551,0.515,�k��,6.5,��
2024/02/28,09:20,0.501,0.755,0.477,0.943,0.677,0.308,0.550,0.516,�k��,6.8,��
2024/02/28,09:30,0.498,0.755,0.477,0.944,0.678,0.306,0.551,0.516,���k��,9.5,��
2024/02/28,09:40,0.500,0.755,0.478,0.945,0.677,0.308,0.550,0.516,�k��,6.2,��
2024/02/28,09:50,0.499,0.755,0.478,0.943,0.678,0.308,0.552,0.516,�k��,10.0,��
2024/02/28,10:00,0.501,0.755,0.478,0.943,0.678,0.308,0.550,0.516,���k��,9.7,��
2024/02/28,10:10,0.499,0.754,0.478,0.944,0.679,0.307,0.550,0.515,���k��,9.3,��
2024/02/28,10:20,0.500,0.756,0.479,0.946,0.679,0.309,0.550,0.516,�k��,10.5,��
2024/02/28,10:30,0.500,0.755,0.478,0.945,0.677,0.307,0.550,0.517,�k��,9.5,��
2024/02/28,10:40,0.500,0.755,0.477,0.945,0.679,0.308,0.551,0.515,�k��,9.8,��
2024/02/28,10:50,0.500,0.757,0.478,0.944,0.677,0.307,0.550,0.516,���k��,10.0,��
2024/02/28,11:00,0.502,0.755,0.478,0.944,0.680,0.309,0.550,0.518,���k��,13.0,��
2024/02/28,11:10,0.499,0.757,0.477,0.945,0.679,0.307,0.548,0.516,�k��,11.6,��
2024/02/28,11:20,0.499,0.756,0.476,0.946,0.678,0.308,0.550,0.517,�k��,10.0,��
2024/02/28,11:30,0.500,0.756,0.479,0.946,0.679,0.308,0.550,0.516,�k��,10.9,��
2024/02/28,11:40,0.500,0.756,0.480,0.944,0.678,0.308,0.550,0.520,�k��,11.9,��
2024/02/28,11:50,0.500,0.756,0.478,0.944,0.680,0.308,0.549,0.518,�k��,10.6,��
2024/02/28,12:00,0.500,0.757,0.479,0.947,0.681,0.309,0.551,0.518,�k��,11.4,��
2024/02/28,12:10,0.501,0.758,0.479,0.946,0.680,0.308,0.550,0.517,�k��,12.7,��
2024/02/28,12:20,0.499,0.756,0.479,0.948,0.679,0.308,0.549,0.517,�k��,11.3,��
2024/02/28,12:30,0.500,0.758,0.481,0.946,0.678,0.308,0.550,0.520,�k��,9.8,��
2024/02/28,12:40,0.501,0.756,0.480,0.947,0.679,0.308,0.550,0.517,�k��,10.2,��
2024/02/28,12:50,0.500,0.757,0.480,0.947,0.680,0.308,0.550,0.516,�k��,11.0,��
2024/02/28,13:00,0.500,0.758,0.480,0.946,0.678,0.309,0.551,0.516,�k��,8.8,��
2024/02/28,13:10,0.501,0.759,0.479,0.948,0.681,0.309,0.551,0.517,�k��,9.5,��
2024/02/28,13:20,0.501,0.759,0.480,0.946,0.680,0.308,0.549,0.519,�k��,12.2,��
2024/02/28,13:30,0.499,0.757,0.480,0.948,0.680,0.308,0.551,0.518,�k��,9.2,��
2024/02/28,13:40,0.499,0.758,0.481,0.948,0.682,0.310,0.550,0.519,�k��,10.9,��
2024/02/28,13:50,0.501,0.760,0.480,0.948,0.681,0.309,0.549,0.517,�k��,12.7,��
2024/02/28,14:00,0.502,0.758,0.480,0.946,0.680,0.308,0.549,0.517,�k��,10.6,��
2024/02/28,14:10,0.503,0.758,0.480,0.948,0.680,0.309,0.549,0.518,�k��,12.8,��
2024/02/28,14:20,0.501,0.761,0.479,0.950,0.680,0.308,0.550,0.516,�k��,9.7,��
2024/02/28,14:30,0.501,0.759,0.480,0.949,0.680,0.307,0.550,0.518,���k��,9.8,��
2024/02/28,14:40,0.502,0.762,0.480,0.948,0.681,0.309,0.549,0.515,�k��,11.0,��
2024/02/28,14:50,0.502,0.762,0.479,0.950,0.681,0.308,0.548,0.516,�k��,14.1,��
2024/02/28,15:00,0.502,0.761,0.479,0.949,0.680,0.309,0.548,0.515,�k��,11.0,��
2024/02/28,15:10,0.501,0.762,0.480,0.949,0.683,0.308,0.550,0.517,�k��,11.0,��
2024/02/28,15:20,0.501,0.762,0.480,0.950,0.682,0.308,0.551,0.516,�k��,8.1,��
2024/02/28,15:30,0.501,0.763,0.481,0.950,0.682,0.309,0.549,0.518,���k��,8.5,��
2024/02/28,15:40,0.502,0.762,0.480,0.950,0.681,0.309,0.548,0.517,���k��,7.1,��
2024/02/28,15:50,0.501,0.760,0.480,0.950,0.683,0.308,0.550,0.517,�k��,7.7,��
2024/02/28,16:00,0.502,0.762,0.481,0.948,0.682,0.310,0.553,0.521,�k��,7.9,��
2024/02/28,16:10,0.503,0.761,0.480,0.950,0.683,0.309,0.552,0.519,���k��,5.9,��
2024/02/28,16:20,0.503,0.763,0.480,0.950,0.680,0.308,0.551,0.517,�k�k��,8.6,��
2024/02/28,16:30,0.501,0.764,0.481,0.948,0.683,0.309,0.552,0.518,�k��,8.0,��
2024/02/28,16:40,0.503,0.762,0.481,0.951,0.681,0.309,0.551,0.519,�k�k��,8.3,��
2024/02/28,16:50,0.502,0.763,0.479,0.949,0.682,0.309,0.552,0.518,�k��,8.3,��
2024/02/28,17:00,0.504,0.764,0.480,0.950,0.684,0.308,0.551,0.518,�k��,9.2,��
2024/02/28,17:10,0.502,0.762,0.480,0.949,0.684,0.308,0.552,0.518,�k��,8.5,��
2024/02/28,17:20,0.503,0.763,0.480,0.949,0.683,0.308,0.552,0.518,�k�k��,6.3,��
2024/02/28,17:30,0.502,0.763,0.480,0.950,0.684,0.308,0.551,0.519,�k��,7.7,��
2024/02/28,17:40,0.503,0.763,0.480,0.950,0.685,0.309,0.551,0.519,�k��,5.3,��
2024/02/28,17:50,0.501,0.764,0.479,0.950,0.684,0.310,0.551,0.517,�k��,5.7,��
2024/02/28,18:00,0.503,0.762,0.480,0.950,0.683,0.310,0.552,0.517,�k��,4.8,��
2024/02/28,18:10,0.504,0.762,0.480,0.952,0.683,0.307,0.550,0.517,�k��,7.5,��
2024/02/28,18:20,0.502,0.763,0.480,0.950,0.682,0.309,0.550,0.518,�k��,9.4,��
2024/02/28,18:30,0.502,0.762,0.480,0.952,0.684,0.307,0.552,0.517,�k��,8.3,��
2024/02/28,18:40,0.503,0.762,0.480,0.952,0.686,0.307,0.551,0.517,�k��,7.2,��
2024/02/28,18:50,0.502,0.765,0.479,0.948,0.684,0.308,0.551,0.519,�k��,5.7,��
2024/02/28,19:00,0.504,0.763,0.479,0.950,0.684,0.308,0.552,0.518,�k��,7.9,��
2024/02/28,19:10,0.502,0.764,0.480,0.951,0.683,0.307,0.551,0.517,�k��,6.1,��
2024/02/28,19:20,0.503,0.761,0.479,0.950,0.683,0.309,0.551,0.516,�k��,5.3,��
2024/02/28,19:30,0.503,0.762,0.480,0.949,0.684,0.309,0.551,0.517,�k��,4.7,��
2024/02/28,19:40,0.504,0.763,0.480,0.949,0.682,0.308,0.550,0.518,�k��,4.5,��
2024/02/28,19:50,0.503,0.763,0.479,0.948,0.685,0.308,0.551,0.518,�k��,4.6,��
2024/02/28,20:00,0.501,0.763,0.480,0.950,0.686,0.307,0.551,0.516,���k��,5.3,��
2024/02/28,20:10,0.503,0.761,0.480,0.949,0.684,0.308,0.551,0.517,�k��,4.7,��
2024/02/28,20:20,0.503,0.764,0.480,0.950,0.682,0.307,0.551,0.517,���k��,4.0,��
2024/02/28,20:30,0.504,0.762,0.479,0.951,0.683,0.307,0.551,0.518,���k��,5.1,��
2024/02/28,20:40,0.503,0.762,0.479,0.951,0.683,0.307,0.551,0.517,��,2.3,��
2024/02/28,20:50,0.503,0.763,0.479,0.950,0.683,0.308,0.551,0.517,�k��,2.5,��
2024/02/28,21:00,0.503,0.762,0.480,0.949,0.683,0.308,0.550,0.516,���k��,2.5,��
2024/02/28,21:10,0.502,0.765,0.479,0.953,0.684,0.309,0.550,0.516,���k��,4.4,��
2024/02/28,21:20,0.502,0.761,0.478,0.950,0.684,0.307,0.551,0.516,���k��,3.4,��
2024/02/28,21:30,0.502,0.762,0.478,0.950,0.683,0.307,0.549,0.516,�k��,3.2,��
2024/02/28,21:40,0.500,0.763,0.480,0.950,0.683,0.309,0.549,0.515,�k��,3.1,��
2024/02/28,21:50,0.502,0.762,0.481,0.953,0.681,0.307,0.549,0.517,�k��,2.5,��
2024/02/28,22:00,0.503,0.761,0.480,0.950,0.684,0.308,0.550,0.516,�k�k��,3.2,��
2024/02/28,22:10,0.503,0.761,0.479,0.950,0.683,0.308,0.551,0.517,�k��,3.8,��
2024/02/28,22:20,0.501,0.763,0.478,0.950,0.681,0.309,0.549,0.515,�k��,4.5,��
2024/02/28,22:30,0.503,0.762,0.479,0.949,0.682,0.309,0.549,0.516,�k��,6.2,��
2024/02/28,22:40,0.503,0.763,0.478,0.949,0.683,0.310,0.549,0.515,���k��,5.8,��
2024/02/28,22:50,0.500,0.762,0.479,0.949,0.685,0.309,0.549,0.516,���k��,5.7,��
2024/02/28,23:00,0.502,0.763,0.478,0.951,0.684,0.309,0.550,0.516,���k��,4.6,��
2024/02/28,23:10,0.501,0.763,0.477,0.949,0.683,0.308,0.551,0.517,���k��,4.2,��
2024/02/28,23:20,0.502,0.763,0.479,0.950,0.684,0.309,0.551,0.517,�k��,3.6,��
2024/02/28,23:30,0.501,0.762,0.478,0.950,0.681,0.307,0.550,0.516,���k��,4.6,��
2024/02/28,23:40,0.504,0.761,0.479,0.950,0.682,0.308,0.550,0.516,���k��,3.3,��
2024/02/28,23:50,0.502,0.764,0.480,0.951,0.684,0.308,0.549,0.516,���k��,3.4,��
